Wind_Speed
8 7 6 5 4 4 3 3 3 3 4 4 3 3 2 2 1 1 1 2 3 3 3 5 5 5 5 5 6 6 6 6 6 5 6 6 6 6 6 6 7 6 6
10 8 7 5 5 4 4 3 3 3 3 3 3 3 3 2 2 1 1 1 2 2 3 3 4 4 4 4 5 6 6 6 6 6 6 7 6 7 7 7 7 7 7
11 9 7 6 5 4 4 3 3 2 3 3 2 2 3 2 2 2 1 1 1 2 2 2 3 4 4 4 4 4 5 6 6 7 7 7 7 7 7 8 8 8 8
11 9 8 7 6 5 4 4 3 2 3 2 2 2 2 2 2 1 1 1 1 1 2 2 3 3 4 3 3 3 4 5 6 6 7 7 7 7 7 8 9 9 9
11 10 9 8 7 6 5 4 4 3 3 2 2 2 2 3 2 2 1 1 1 1 2 2 3 3 3 3 4 4 4 5 5 5 5 6 6 6 7 7 8 8 9
11 10 9 9 8 7 6 5 5 4 4 3 2 2 2 2 2 2 2 2 1 2 2 2 3 3 4 4 4 3 4 4 5 5 5 6 6 7 7 7 8 9 9
12 11 10 9 9 8 8 7 6 6 5 4 4 3 3 3 2 2 2 2 2 2 2 2 3 3 3 3 4 4 4 5 5 5 6 7 8 8 8 9 9 9 10
13 12 11 10 10 9 9 8 8 7 6 6 5 5 4 3 3 3 3 3 3 2 3 3 3 3 3 3 4 4 5 5 6 7 7 7 8 9 9 10 11 11 11
15 14 13 11 11 10 10 10 9 9 8 7 7 6 5 5 4 4 4 4 4 4 4 4 4 4 4 5 5 6 6 7 8 8 8 9 9 10 11 11 12 13 13
14 14 14 13 12 12 11 11 11 10 9 9 9 8 7 7 6 6 6 6 5 5 5 6 6 6 7 7 8 8 9 10 10 10 11 12 12 12 13 14 15 15 15
14 14 15 15 14 13 13 13 12 12 11 11 10 10 10 9 9 9 9 8 8 8 8 8 9 9 9 10 11 11 12 13 13 13 14 15 15 16 16 17 17 18 18
15 15 15 16 15 15 14 14 14 13 13 12 12 12 12 11 11 11 11 11 11 11 12 12 13 13 13 14 14 15 16 16 17 17 18 18 19 19 20 20 21 21 22
15 15 16 17 17 16 16 16 15 14 14 14 14 14 13 13 14 14 14 14 14 15 15 15 16 17 17 17 17 18 19 19 20 21 22 22 22 23 23 24 25 25 26
15 16 16 17 17 18 17 17 16 16 16 16 16 16 16 16 17 16 17 17 17 18 18 18 19 19 20 20 21 21 21 22 23 24 24 25 25 26 27 27 28 29 30
15 16 16 17 17 18 18 18 18 18 18 18 18 18 18 19 19 19 19 20 21 21 22 22 23 23 23 23 24 24 25 26 27 27 27 28 28 29 29 30 31 31 33
15 16 17 17 18 19 19 19 19 19 20 20 20 20 20 20 21 22 22 23 23 23 24 24 25 26 25 26 27 27 28 29 29 30 30 30 31 32 32 33 34 35 36
16 17 18 18 18 19 19 19 20 20 21 21 21 22 22 22 21 21 22 24 25 25 26 26 27 27 27 28 29 29 29 30 31 31 32 32 33 34 35 36 38 38 39
16 17 18 19 19 19 19 19 20 20 21 21 22 23 23 23 23 24 24 25 26 27 27 27 27 28 28 29 31 31 31 32 33 33 34 35 36 37 39 40 41 42 43
16 16 17 19 19 19 19 19 20 20 21 22 22 23 24 24 25 26 26 27 27 28 28 28 28 29 30 31 32 34 34 35 36 36 36 38 39 40 42 44 45 46 47
16 17 18 18 19 20 20 21 22 22 22 23 24 25 25 26 27 27 28 28 28 28 29 30 30 31 32 33 34 35 35 36 37 37 39 41 42 43 45 46 47 48 50
16 16 18 19 20 21 21 22 22 22 23 23 25 26 27 28 29 30 30 30 30 30 31 31 32 33 33 34 34 35 36 37 39 40 41 43 44 45 47 48 49 50 52
17 17 18 19 20 20 21 22 23 24 24 24 26 27 28 29 30 29 29 30 30 31 31 31 32 33 34 36 37 37 38 40 42 43 44 46 47 48 50 51 52 54 55
19 19 19 20 21 21 23 23 23 23 24 25 27 28 28 28 28 29 29 30 30 31 31 32 34 35 37 37 39 40 41 43 44 45 46 48 50 51 53 54 55 56 57
21 21 21 21 22 22 22 23 24 25 26 27 28 28 28 27 27 29 30 30 31 32 33 34 35 36 38 39 40 42 44 45 46 47 49 50 51 52 54 55 57 58 59
22 22 22 22 22 23 24 24 26 26 27 27 27 28 28 28 29 29 31 31 32 33 34 35 36 37 39 40 42 43 45 46 47 48 49 50 51 52 53 55 55 56 57
23 23 23 23 23 24 24 26 26 26 27 27 28 28 29 30 30 30 31 32 34 35 35 36 38 39 40 41 43 44 45 46 47 47 49 49 50 51 52 53 54 55 56
Wind_Direction
250 250 251 246 239 234 229 217 216 221 221 218 219 219 212 184 179 249 252 222 214 224 231 231 231 241 249 252 249 246 241 243 247 252 257 263 267 265 267 270 275 277 277
249 253 252 251 244 240 234 222 221 227 225 218 222 225 212 202 214 241 211 210 227 236 232 232 235 246 262 261 256 251 248 245 246 252 258 262 268 270 270 271 273 274 277
249 252 249 250 251 248 241 236 233 229 222 220 221 206 204 225 216 212 223 220 237 234 240 242 247 259 266 268 254 252 253 254 254 260 261 261 264 268 271 273 271 271 275
246 247 246 249 252 250 248 239 234 214 206 209 205 203 213 214 205 203 228 220 218 246 250 254 263 268 272 276 271 263 271 266 263 275 269 263 265 268 273 276 276 274 274
243 245 246 249 248 244 244 238 229 212 204 204 204 209 206 199 207 215 214 236 256 271 272 271 279 276 281 284 282 280 283 274 267 274 278 272 272 275 279 282 280 282 278
242 245 245 245 244 240 241 237 228 219 216 216 217 214 208 202 213 221 221 236 265 277 281 291 293 291 288 286 288 289 289 291 284 282 282 285 281 279 283 289 289 288 286
236 240 240 240 242 241 243 242 236 229 228 228 228 230 221 221 236 244 235 250 261 274 275 299 304 302 304 293 287 289 287 286 294 294 291 288 283 281 283 287 290 292 292
235 237 238 240 241 243 242 244 244 238 235 236 235 240 235 233 247 250 260 265 266 273 279 286 291 294 305 311 307 298 296 293 294 295 294 294 290 284 286 286 286 289 289
236 237 237 237 241 244 245 245 246 240 239 240 242 246 244 245 251 258 265 268 271 272 276 280 288 293 299 303 299 294 298 298 297 297 296 297 297 291 287 288 290 291 290
234 234 237 240 242 243 245 243 244 242 243 244 244 246 249 247 250 251 259 263 271 277 282 285 288 289 291 292 294 294 295 295 295 295 294 293 292 291 288 289 289 290 292
233 233 235 239 241 241 241 243 244 245 245 246 246 246 249 250 254 255 260 264 270 276 281 283 286 285 287 288 289 292 292 290 290 290 291 292 291 290 289 289 290 289 290
238 237 236 239 240 240 242 244 246 246 246 247 247 248 250 253 259 261 265 267 271 274 277 281 284 286 286 286 289 291 292 290 289 288 288 289 288 289 289 288 288 287 286
240 238 239 242 241 241 243 246 248 248 249 249 250 252 255 257 260 263 267 271 274 276 278 282 284 286 286 287 288 288 288 289 289 289 288 287 286 287 287 288 287 286 286
241 241 243 245 243 243 244 246 249 250 252 254 255 256 258 260 261 266 269 273 276 277 279 281 283 284 285 286 286 287 287 287 287 287 287 287 286 286 287 287 287 286 286
246 246 245 247 247 248 246 246 249 252 253 256 258 259 261 264 266 268 272 275 277 279 281 282 283 283 284 285 286 286 287 288 287 286 286 286 287 286 286 286 286 286 286
251 249 250 252 253 252 250 249 250 253 255 257 260 262 264 266 269 270 274 276 276 278 280 282 284 286 287 287 287 286 287 286 286 286 286 286 286 286 286 285 286 286 286
254 251 250 252 255 255 253 253 252 252 255 258 262 263 265 266 269 271 274 276 277 278 280 282 284 285 286 287 287 286 285 286 287 287 287 287 287 287 287 287 287 287 286
256 254 253 253 254 256 255 254 255 255 256 259 262 264 265 265 269 271 274 276 279 280 280 282 284 284 286 287 287 287 287 289 289 288 288 287 287 288 288 288 288 288 287
261 257 256 255 255 257 257 255 257 257 258 261 263 264 266 268 271 274 276 279 280 281 282 283 284 285 287 287 288 289 291 291 291 290 290 289 289 290 289 289 289 288 288
266 261 258 256 257 259 260 260 261 262 261 263 264 265 268 271 272 276 278 279 280 281 282 284 285 286 287 288 289 290 292 292 292 291 291 291 291 291 291 290 289 288 288
272 267 262 260 261 262 263 264 266 265 264 266 268 268 270 272 274 277 278 279 279 280 282 284 286 287 288 289 290 292 293 293 292 293 293 292 292 292 292 291 290 289 288
273 270 269 264 262 263 264 265 268 268 268 271 272 272 274 276 278 279 279 280 282 283 285 287 289 289 290 291 291 292 293 293 294 294 294 294 294 293 293 292 291 290 290
275 271 270 266 265 265 266 268 271 270 272 275 276 276 277 279 279 279 279 281 284 286 287 289 290 290 291 292 293 294 295 295 295 295 295 295 294 294 294 293 292 292 291
276 274 271 270 268 266 268 270 271 273 275 276 278 278 279 280 282 282 283 284 285 287 288 290 291 291 292 293 294 295 296 296 296 296 295 295 295 295 295 295 294 293 292
276 277 275 272 272 270 271 273 275 276 277 277 278 279 279 279 282 284 286 286 287 288 290 292 294 294 295 296 296 296 296 296 296 296 296 296 296 297 297 297 296 295 294
276 278 278 277 276 276 276 276 277 275 277 278 279 280 282 282 285 288 289 287 288 291 294 295 296 296 296 296 297 297 297 297 298 298 298 299 299 299 299 299 298 298 298
Height
5894 5895 5896 5897 5897 5898 5898 5899 5899 5899 5900 5900 5900 5901 5901 5902 5903 5903 5903 5904 5905 5905 5906 5907 5908 5909 5909 5910 5910 5911 5912 5912 5913 5914 5914 5914 5915 5915 5915 5915 5915 5915 5915
5894 5895 5896 5896 5897 5897 5898 5899 5899 5899 5900 5900 5900 5901 5901 5902 5902 5903 5904 5904 5905 5905 5906 5907 5907 5908 5908 5909 5909 5910 5911 5911 5912 5912 5913 5913 5913 5914 5914 5914 5914 5914 5914
5892 5894 5895 5896 5896 5897 5898 5899 5899 5899 5900 5900 5900 5901 5901 5902 5903 5903 5904 5904 5905 5905 5906 5906 5907 5907 5908 5908 5908 5909 5909 5910 5911 5911 5911 5911 5912 5912 5912 5912 5912 5912 5912
5891 5893 5894 5895 5896 5897 5898 5898 5899 5899 5900 5900 5900 5901 5901 5902 5902 5903 5903 5904 5904 5905 5905 5906 5906 5907 5907 5907 5908 5908 5908 5909 5909 5910 5910 5910 5910 5910 5910 5910 5910 5910 5910
5890 5892 5893 5894 5895 5896 5897 5898 5898 5899 5900 5900 5900 5901 5901 5902 5902 5903 5903 5904 5904 5904 5905 5905 5906 5906 5907 5907 5907 5907 5907 5908 5908 5908 5908 5908 5908 5908 5908 5908 5908 5908 5908
5889 5890 5892 5893 5895 5896 5896 5897 5898 5899 5899 5900 5900 5901 5901 5902 5902 5902 5903 5903 5904 5904 5904 5905 5905 5905 5906 5906 5906 5906 5906 5907 5907 5907 5907 5907 5907 5907 5907 5907 5906 5906 5906
5887 5889 5891 5892 5894 5895 5896 5896 5897 5898 5899 5899 5900 5901 5901 5901 5902 5902 5902 5903 5903 5903 5903 5904 5904 5904 5905 5905 5905 5905 5905 5905 5905 5905 5905 5905 5905 5905 5905 5905 5904 5904 5904
5885 5887 5889 5891 5893 5894 5894 5895 5896 5897 5898 5899 5899 5900 5900 5901 5901 5902 5902 5902 5903 5903 5903 5903 5904 5904 5904 5904 5904 5904 5904 5904 5904 5904 5904 5903 5903 5903 5903 5902 5902 5902 5901
5883 5885 5887 5889 5891 5892 5893 5894 5895 5896 5897 5897 5898 5899 5899 5900 5900 5901 5901 5902 5902 5902 5902 5902 5903 5903 5903 5903 5903 5903 5903 5903 5903 5902 5902 5901 5901 5901 5900 5900 5900 5899 5899
5881 5883 5885 5887 5888 5890 5891 5892 5893 5894 5895 5896 5896 5897 5898 5899 5899 5900 5900 5900 5901 5901 5901 5901 5901 5901 5902 5902 5902 5901 5901 5901 5901 5900 5900 5899 5899 5898 5897 5897 5897 5896 5895
5878 5880 5883 5884 5886 5888 5889 5890 5891 5892 5893 5894 5895 5896 5896 5897 5898 5898 5899 5899 5899 5899 5900 5900 5900 5899 5900 5900 5899 5899 5899 5898 5898 5897 5897 5896 5895 5895 5894 5893 5893 5892 5891
5876 5878 5880 5882 5883 5885 5886 5888 5889 5890 5891 5892 5893 5894 5894 5895 5896 5896 5897 5897 5897 5898 5897 5897 5898 5897 5897 5896 5896 5896 5896 5895 5894 5894 5893 5892 5891 5890 5889 5889 5888 5887 5886
5874 5876 5877 5879 5881 5882 5883 5885 5886 5887 5888 5889 5890 5891 5892 5893 5894 5894 5894 5894 5894 5894 5894 5894 5894 5894 5894 5893 5892 5892 5892 5891 5890 5889 5888 5887 5886 5885 5884 5883 5882 5881 5880
5871 5873 5875 5876 5877 5879 5880 5881 5883 5884 5885 5886 5887 5888 5889 5890 5890 5891 5891 5891 5891 5891 5891 5891 5890 5890 5889 5888 5887 5887 5887 5886 5885 5884 5883 5881 5880 5879 5878 5877 5875 5874 5873
5868 5870 5871 5873 5874 5875 5877 5878 5879 5880 5882 5883 5883 5884 5885 5886 5886 5887 5887 5887 5887 5887 5886 5886 5885 5884 5884 5883 5882 5881 5881 5880 5878 5877 5876 5875 5873 5872 5871 5870 5868 5867 5865
5865 5866 5868 5869 5870 5872 5873 5874 5875 5876 5877 5878 5879 5880 5881 5881 5882 5882 5882 5882 5882 5882 5881 5880 5880 5878 5878 5877 5876 5875 5874 5873 5871 5869 5868 5867 5865 5864 5863 5861 5860 5858 5856
5862 5863 5864 5865 5866 5867 5868 5870 5871 5872 5873 5874 5875 5876 5876 5876 5877 5877 5877 5876 5876 5876 5875 5875 5874 5872 5871 5870 5869 5868 5867 5866 5864 5862 5860 5859 5857 5855 5854 5852 5850 5848 5846
5858 5859 5860 5861 5862 5863 5864 5865 5866 5867 5868 5869 5870 5871 5871 5871 5872 5872 5871 5871 5870 5869 5869 5868 5867 5866 5864 5863 5861 5860 5859 5858 5856 5854 5852 5850 5848 5846 5844 5841 5839 5837 5834
5854 5855 5855 5856 5857 5858 5859 5860 5862 5863 5864 5864 5865 5866 5866 5866 5866 5866 5866 5865 5864 5863 5862 5861 5860 5859 5858 5856 5854 5852 5850 5849 5847 5845 5843 5840 5838 5835 5833 5830 5827 5825 5822
5850 5850 5851 5852 5853 5854 5855 5855 5856 5857 5858 5859 5860 5860 5860 5860 5860 5860 5859 5858 5857 5856 5855 5854 5853 5852 5851 5849 5846 5844 5842 5840 5837 5835 5833 5830 5827 5824 5821 5818 5815 5812 5808
5846 5846 5847 5848 5849 5849 5850 5851 5851 5852 5853 5853 5854 5854 5854 5854 5854 5853 5852 5851 5850 5849 5848 5846 5845 5844 5842 5840 5838 5835 5833 5830 5827 5825 5822 5819 5816 5812 5809 5805 5801 5798 5794
5842 5843 5843 5843 5844 5845 5845 5845 5846 5847 5847 5847 5847 5847 5847 5847 5846 5846 5845 5844 5843 5842 5840 5839 5837 5836 5833 5831 5829 5826 5823 5821 5818 5815 5811 5807 5803 5799 5795 5791 5786 5782 5778
5838 5839 5839 5839 5839 5840 5840 5840 5841 5840 5841 5841 5841 5841 5840 5840 5839 5838 5838 5836 5835 5834 5833 5831 5829 5827 5825 5822 5819 5816 5813 5809 5806 5802 5798 5794 5790 5785 5780 5775 5770 5766 5761
5833 5833 5833 5834 5834 5834 5834 5834 5835 5834 5834 5835 5834 5834 5833 5833 5832 5831 5830 5828 5827 5825 5824 5822 5820 5817 5814 5811 5808 5805 5802 5797 5793 5789 5785 5780 5775 5770 5764 5758 5753 5748 5743
5827 5827 5827 5827 5828 5828 5828 5828 5828 5828 5828 5828 5827 5827 5826 5826 5825 5823 5822 5820 5819 5817 5814 5812 5810 5807 5804 5801 5797 5793 5789 5785 5780 5776 5771 5766 5761 5755 5749 5743 5737 5731 5725
5821 5821 5821 5821 5821 5822 5822 5822 5822 5821 5821 5821 5820 5819 5819 5818 5817 5815 5814 5812 5810 5808 5806 5803 5800 5796 5793 5789 5785 5781 5777 5772 5767 5762 5757 5751 5746 5740 5735 5727 5721 5714 5708